Regional Weather Roundup
Issued by NWS

Home | Current Version | Previous Version | Text Only | Print | Product List | Glossary Off
Versions: 1 2 3 4 5 6 7 8 9 10 11 12 13 14 15 16 17 18 19 20 21 22 23 24 25 26 27 28 29 30 31 32 33 34 35 36 37 38 39 40 41 42 43 44 45 46 47 48 49 50

959
ASUS45 KSLC 272210
RWRUT

UTAH REGIONAL WEATHER ROUNDUP
NATIONAL WEATHER SERVICE SALT LAKE CITY UT
400 PM MDT TUE SEP 27 2016

UTZ001>011-023>025-272300-

NORTHERN UTAH

CITY           SKY/WX    TMP DP  RH WIND       PRES   REMARKS
BRIGHAM CITY     N/A     74  42  31 CALM      30.16F
DUGWAY         MOSUNNY   74  47  38 W6        30.16F
HILL AFB       SUNNY     73  48  41 NW6       30.17F
LOGAN          SUNNY     76  47  35 VRB5      30.15F
OGDEN          SUNNY     74  48  39 CALM      30.15F
PROVO AIRPORT  SUNNY     73  48  41 W5        30.15F
SALT LAKE CITY MOSUNNY   76  50  40 NW8       30.14F
VERNAL         SUNNY     71  47  42 E5        30.20F
WENDOVER       SUNNY     72  45  37 E6        30.17F
HEBER CITY     SUNNY     79  36  21 SW8       30.16F
WEST JORDAN    SUNNY     73  47  39 N8        30.17S

$$

UTZ012>022-026-027-272300-

SOUTHERN/CENTRAL UTAH

CITY           SKY/WX    TMP DP  RH WIND       PRES   REMARKS
BLANDING       SUNNY     75  32  20 SW7       30.29F
BRYCE CANYON   SUNNY     67  31  26 VRB3G17   30.33S
CEDAR CITY     SUNNY     79  33  19 VRB6      30.16F
DELTA          SUNNY     75  37  25 SW3       30.16F
MILFORD        SUNNY     81  27  14 S7        30.13F
MOAB/CYNLANDS  SUNNY     80  36  20 NW9       30.13F
PRICE          SUNNY     73  36  25 VRB3      30.23F
ST GEORGE      CLEAR     88  37  16 W3        30.02F

$$

REGIONAL REPORTS     COLORADO/ARIZONA

CITY           SKY/WX    TMP DP  RH WIND       PRES   REMARKS
CRAIG, CO      SUNNY     77  28  16 W9        30.23F
GRAND JUNCTION SUNNY     79  35  20 W8        30.14F
RIFLE          SUNNY     80  36  20 W9        30.15F
MONTROSE       SUNNY     76  34  21 NW13      30.19F
CORTEZ         SUNNY     75  34  22 VRB3      30.22F
PAGE, AZ       MOSUNNY   81  31  16 VRB3      30.12F
GRAND CANYON   PTSUNNY   67  43  41 E16       30.27F
KINGMAN        CLOUDY    80  50  34 E10       30.06F
FLAGSTAFF      MOSUNNY   64  45  49 NE8       30.24F

$$

REGIONAL REPORTS    NEVADA/IDAHO/WYOMING

CITY           SKY/WX    TMP DP  RH WIND       PRES   REMARKS
LAS VEGAS, NV  PTSUNNY   89  35  14 E8        29.97F
ELY            SUNNY     78  30  17 VRB3      30.19F
ELKO           SUNNY     82  32  16 CALM      30.13F
POCATELLO, ID  SUNNY     78  43  28 VRB6      30.15F
BURLEY         SUNNY     79  45  29 E6        30.10F
EVANSTON, WY   SUNNY     73  30  20 N6        30.28F
ROCK SPRINGS   SUNNY     70  35  27 VRB5      30.27F

$$




USA.gov is the U.S. government's official web portal to all federal, state and local government web resources and services.